,,,PA_Meas_PMT16A,,PR_Meas_QMR101_102,,RH_Meas_QMH101,,SR_Meas_QMS101,,TA_Meas_QMH101,,GenWind,,GenWind,
date,time,status,PA,status,PR,status,RH,status,SR,status,TA,status,DirAvg,status,SpdAvg,
2011-05-03, 00:00:04,VALID,1001.65,VALID,0,VALID,96.9554,VALID,0,VALID,26.3108,VALID,53,VALID,0.866016,
2011-05-03, 00:01:04,VALID,1001.65,VALID,0,VALID,96.7952,VALID,0,VALID,26.3323,VALID,24,VALID,1.03828,
2011-05-03, 00:02:04,VALID,1001.66,VALID,0,VALID,96.7189,VALID,0,VALID,26.3303,VALID,53,VALID,0.532422,
2011-05-03, 00:03:04,VALID,1001.66,VALID,0,VALID,96.7189,VALID,0,VALID,26.3108,VALID,26,VALID,0.467969,
2011-05-03, 00:04:04,VALID,1001.66,VALID,0,VALID,97.0088,VALID,0,VALID,26.3108,VALID,33,VALID,0.711719,
2011-05-03, 00:05:04,VALID,1001.66,VALID,0,VALID,97.0241,VALID,0,VALID,26.3128,VALID,37,VALID,0.372656,
2011-05-03, 00:06:04,VALID,1001.64,VALID,0,VALID,96.2383,VALID,0,VALID,26.3128,VALID,40,VALID,0.825,
2011-05-03, 00:07:04,VALID,1001.65,VALID,0,VALID,95.6814,VALID,0,VALID,26.3323,VALID,46,VALID,0.653906,
2011-05-03, 00:08:04,VALID,1001.65,VALID,0,VALID,95.2389,VALID,0,VALID,26.3518,VALID,93,VALID,1.11367,
2011-05-03, 00:09:04,VALID,1001.65,VALID,0,VALID,95.3457,VALID,0,VALID,26.3713,VALID,24,VALID,0.482422,
2011-05-03, 00:10:04,VALID,1001.63,VALID,0,VALID,93.8734,VALID,0,VALID,26.3907,VALID,24,VALID,1.23242,
2011-05-03, 00:11:04,VALID,1001.61,VALID,0,VALID,93.4233,VALID,0,VALID,26.4687,VALID,25,VALID,1.50273,
2011-05-03, 00:12:04,VALID,1001.59,VALID,0,VALID,92.9503,VALID,0,VALID,26.5466,VALID,26,VALID,1.02305,
2011-05-03, 00:13:04,VALID,1001.63,VALID,0,VALID,92.874,VALID,0,VALID,26.5641,VALID,21,VALID,0.705469,
2011-05-03, 00:14:04,VALID,1001.61,VALID,0,VALID,92.1111,VALID,0.100563,VALID,26.603,VALID,6,VALID,0.782422,
2011-05-03, 00:15:04,VALID,1001.61,VALID,0,VALID,91.7754,VALID,0.100563,VALID,26.601,VALID,10,VALID,1.21211,
2011-05-03, 00:16:04,VALID,1001.59,VALID,0,VALID,91.7525,VALID,0.100563,VALID,26.6594,VALID,18,VALID,0.551172,
2011-05-03, 00:17:04,VALID,1001.61,VALID,0,VALID,91.8136,VALID,0.100563,VALID,26.6984,VALID,36,VALID,0.0417969,
2011-05-03, 00:18:04,VALID,1001.61,VALID,0,VALID,92.3247,VALID,0.100563,VALID,26.7199,VALID,23,VALID,0.347266,
2011-05-03, 00:19:04,VALID,1001.58,VALID,0,VALID,91.6381,VALID,0.100563,VALID,26.7394,VALID,10,VALID,0.494141,
2011-05-03, 00:20:04,VALID,1001.57,VALID,0,VALID,92.5841,VALID,0.100563,VALID,26.7589,VALID,301,VALID,0.230469,
2011-05-03, 00:21:04,VALID,1001.52,VALID,0,VALID,92.1264,VALID,0.100563,VALID,26.7568,VALID,35,VALID,0.103516,
2011-05-03, 00:22:04,VALID,1001.5,VALID,0,VALID,91.7602,VALID,0.100563,VALID,26.7373,VALID,30,VALID,0.948047,
2011-05-03, 00:23:04,VALID,1001.46,VALID,0,VALID,92.134,VALID,0.100563,VALID,26.7373,VALID,114,VALID,0.953516,
2011-05-03, 00:24:04,VALID,1001.39,VALID,0,VALID,91.8517,VALID,0.100563,VALID,26.6984,VALID,115,VALID,0.749609,
2011-05-03, 00:25:04,VALID,1001.37,VALID,0,VALID,92.6146,VALID,0.100563,VALID,26.6984,VALID,113,VALID,0.175391,
2011-05-03, 00:26:04,VALID,1001.38,VALID,0,VALID,93.9573,VALID,0.100563,VALID,26.6789,VALID,121,VALID,0.582422,
2011-05-03, 00:27:04,VALID,1001.38,VALID,0,VALID,93.8581,VALID,0.100563,VALID,26.6614,VALID,141,VALID,0.835547,
2011-05-03, 00:28:04,VALID,1001.37,VALID,0,VALID,93.942,VALID,0.100563,VALID,26.6225,VALID,129,VALID,0.822266,
2011-05-03, 00:29:04,VALID,1001.42,VALID,0,VALID,92.5688,VALID,0,VALID,26.5855,VALID,127,VALID,1.5,
2011-05-03, 00:30:04,VALID,1001.42,VALID,0,VALID,94.8117,VALID,0,VALID,26.5855,VALID,145,VALID,1.3543,
2011-05-03, 00:31:04,VALID,1001.46,VALID,0,VALID,95.3534,VALID,0,VALID,26.5446,VALID,149,VALID,1.12031,
2011-05-03, 00:32:04,VALID,1001.51,VALID,0,VALID,95.033,VALID,0,VALID,26.5056,VALID,166,VALID,0.782422,
2011-05-03, 00:33:04,VALID,1001.52,VALID,0,VALID,95.8645,VALID,0,VALID,26.4881,VALID,170,VALID,0.628516,
2011-05-03, 00:34:04,VALID,1001.55,VALID,0,VALID,96.841,VALID,0,VALID,26.4472,VALID,184,VALID,0.223438,
2011-05-03, 00:35:04,VALID,1001.61,VALID,0,VALID,97.8404,VALID,0,VALID,26.4687,VALID,290,VALID,0.257422,
2011-05-03, 00:36:04,VALID,1001.65,VALID,0,VALID,97.2148,VALID,0,VALID,26.4082,VALID,278,VALID,0.184766,
2011-05-03, 00:37:04,VALID,1001.61,VALID,0,VALID,96.6732,VALID,0,VALID,26.3713,VALID,308,VALID,1.13242,
2011-05-03, 00:38:04,VALID,1001.61,VALID,0,VALID,97.7717,VALID,0,VALID,26.3323,VALID,289,VALID,1.38398,
2011-05-03, 00:39:04,VALID,1001.62,VALID,0,VALID,99.8239,VALID,0,VALID,26.2739,VALID,303,VALID,1.20781,
2011-05-03, 00:40:04,VALID,1001.61,VALID,0,VALID,103.806,VALID,0,VALID,26.2154,VALID,282,VALID,1.34922,
2011-05-03, 00:41:04,VALID,1001.63,VALID,0,INVALID,112.724,VALID,0,VALID,26.1355,VALID,286,VALID,1.85625,
2011-05-03, 00:42:04,VALID,1001.61,VALID,0,INVALID,127.891,VALID,0,VALID,26.118,VALID,9,VALID,0.939062,
2011-05-03, 00:43:04,VALID,1001.62,VALID,0,INVALID,131.385,VALID,0,VALID,26.0791,VALID,352,VALID,0.916797,
2011-05-03, 00:44:04,VALID,1001.63,VALID,0,INVALID,149.602,VALID,0.100563,VALID,26.0576,VALID,350,VALID,0.657031,
2011-05-03, 00:45:04,VALID,1001.63,VALID,0,INVALID,163.54,VALID,0.100563,VALID,26.0167,VALID,352,VALID,0.366797,
2011-05-03, 00:46:04,VALID,1001.61,VALID,0,INVALID,163.54,VALID,0.100563,VALID,26.0576,VALID,327,VALID,0.893359,
2011-05-03, 00:47:04,VALID,1001.62,VALID,0,INVALID,163.571,VALID,0.100563,VALID,26.0167,VALID,351,VALID,1.10117,
2011-05-03, 00:48:04,VALID,1001.61,VALID,0,INVALID,163.609,VALID,0.100563,VALID,26.0187,VALID,355,VALID,0.692187,
2011-05-03, 00:49:04,VALID,1001.6,VALID,0,INVALID,163.571,VALID,0.100563,VALID,25.9972,VALID,353,VALID,0.544141,
2011-05-03, 00:50:04,VALID,1001.56,VALID,0,INVALID,163.609,VALID,0.100563,VALID,26.0012,VALID,359,VALID,0.303125,
2011-05-03, 00:51:04,VALID,1001.56,VALID,0,INVALID,163.601,VALID,0.100563,VALID,25.9388,VALID,359,VALID,0.466406,
2011-05-03, 00:52:04,VALID,1001.52,VALID,0,INVALID,163.578,VALID,0.100563,VALID,25.9408,VALID,359,VALID,0.29375,
2011-05-03, 00:53:04,VALID,1001.47,VALID,0,INVALID,163.563,VALID,0.100563,VALID,25.9213,VALID,359,VALID,0.189453,
2011-05-03, 00:54:04,VALID,1001.46,VALID,0,INVALID,163.594,VALID,0.100563,VALID,25.9193,VALID,359,VALID,0.168359,
2011-05-03, 00:55:04,VALID,1001.42,VALID,0,INVALID,163.601,VALID,0.100563,VALID,25.9193,VALID,360,VALID,0.38125,
2011-05-03, 00:56:04,VALID,1001.41,VALID,0,INVALID,163.578,VALID,0.100563,VALID,25.9232,VALID,360,VALID,0.291797,
2011-05-03, 00:57:04,VALID,1001.42,VALID,0,INVALID,163.571,VALID,0.100563,VALID,25.9018,VALID,83,VALID,0.503906,
2011-05-03, 00:58:04,VALID,1001.38,VALID,0,INVALID,163.586,VALID,0.100563,VALID,25.8629,VALID,97,VALID,0.813281,
2011-05-03, 00:59:04,VALID,1001.37,VALID,0,INVALID,163.586,VALID,0,VALID,25.8843,VALID,101,VALID,0.616406,
2011-05-03, 01:00:04,VALID,1001.36,VALID,0,INVALID,163.594,VALID,0,VALID,25.8648,VALID,103,VALID,0.85,
2011-05-03, 01:01:04,VALID,1001.37,VALID,0,INVALID,163.594,VALID,0,VALID,25.8453,VALID,104,VALID,0.478906,
2011-05-03, 01:02:04,VALID,1001.38,VALID,0,INVALID,163.578,VALID,0,VALID,25.8259,VALID,104,VALID,0.596094,
2011-05-03, 01:03:04,VALID,1001.4,VALID,0,INVALID,163.578,VALID,0,VALID,25.7869,VALID,104,VALID,0.516406,
2011-05-03, 01:04:04,VALID,1001.39,VALID,0,INVALID,163.609,VALID,0,VALID,25.7674,VALID,104,VALID,0.253516,
2011-05-03, 01:05:04,VALID,1001.42,VALID,0,INVALID,163.594,VALID,0,VALID,25.7674,VALID,104,VALID,0.0722656,
2011-05-03, 01:06:04,VALID,1001.39,VALID,0,INVALID,163.624,VALID,0,VALID,25.7889,VALID,104,VALID,0.00195313,
2011-05-03, 01:07:04,VALID,1001.4,VALID,0,INVALID,163.594,VALID,0,VALID,25.748,VALID,104,VALID,0,
2011-05-03, 01:08:04,VALID,1001.36,VALID,0,INVALID,163.594,VALID,0,VALID,25.7285,VALID,104,VALID,0,
2011-05-03, 01:09:04,VALID,1001.35,VALID,0,INVALID,163.601,VALID,0,VALID,25.7285,VALID,104,VALID,0,
2011-05-03, 01:10:04,VALID,1001.52,VALID,0,INVALID,163.609,VALID,0,VALID,25.748,VALID,104,VALID,0.409375,
2011-05-03, 01:11:04,VALID,1001.61,VALID,0,INVALID,163.601,VALID,0,VALID,25.748,VALID,265,VALID,1.47891,
2011-05-03, 01:12:04,VALID,1001.57,VALID,0,INVALID,163.601,VALID,0,VALID,25.5727,VALID,274,VALID,3.1457,
2011-05-03, 01:13:04,VALID,1001.48,VALID,0,INVALID,163.624,VALID,0,VALID,25.3584,VALID,268,VALID,2.8375,
2011-05-03, 01:14:04,VALID,1001.57,VALID,0,INVALID,163.639,VALID,0,VALID,25.1832,VALID,311,VALID,3.17188,
2011-05-03, 01:15:04,VALID,1001.56,VALID,0,INVALID,163.655,VALID,0,VALID,24.9282,VALID,313,VALID,2.52422,
2011-05-03, 01:16:04,VALID,1001.62,VALID,0,INVALID,163.662,VALID,0,VALID,24.8327,VALID,247,VALID,1.64805,
2011-05-03, 01:17:04,VALID,1001.66,VALID,0.5,INVALID,163.701,VALID,0,VALID,24.6166,VALID,221,VALID,2.42656,
2011-05-03, 01:18:04,VALID,1001.64,VALID,0,INVALID,163.693,VALID,0,VALID,24.4822,VALID,185,VALID,2.16992,
2011-05-03, 01:19:04,VALID,1001.61,VALID,0,INVALID,163.716,VALID,0,VALID,24.3654,VALID,198,VALID,1.3332,
2011-05-03, 01:20:04,VALID,1001.64,VALID,0.5,INVALID,163.708,VALID,0,VALID,24.2662,VALID,230,VALID,0.922656,
2011-05-03, 01:21:04,VALID,1001.64,VALID,0,INVALID,163.723,VALID,0,VALID,24.2078,VALID,231,VALID,1.44727,
2011-05-03, 01:22:04,VALID,1001.69,VALID,0,INVALID,163.723,VALID,0,VALID,24.2097,VALID,219,VALID,1.33984,
2011-05-03, 01:23:04,VALID,1001.71,VALID,0,INVALID,163.739,VALID,0,VALID,24.2097,VALID,67,VALID,0.929688,
2011-05-03, 01:24:04,VALID,1001.73,VALID,0.5,INVALID,163.708,VALID,0,VALID,24.2078,VALID,243,VALID,1.22461,
2011-05-03, 01:25:04,VALID,1001.75,VALID,0,INVALID,163.723,VALID,0,VALID,24.2078,VALID,249,VALID,0.661328,
2011-05-03, 01:26:04,VALID,1001.78,VALID,0.5,INVALID,163.701,VALID,0,VALID,24.2291,VALID,277,VALID,0.455469,
2011-05-03, 01:27:04,VALID,1001.78,VALID,0.5,INVALID,163.708,VALID,0,VALID,24.2291,VALID,274,VALID,1.01367,
2011-05-03, 01:28:04,VALID,1001.77,VALID,0,INVALID,163.716,VALID,0,VALID,24.2097,VALID,231,VALID,0.755469,
2011-05-03, 01:29:04,VALID,1001.82,VALID,0.5,INVALID,163.731,VALID,0,VALID,24.2097,VALID,318,VALID,0.761328,
2011-05-03, 01:30:04,VALID,1001.83,VALID,1,INVALID,163.708,VALID,0,VALID,24.1494,VALID,284,VALID,1.04023,
2011-05-03, 01:31:04,VALID,1001.84,VALID,0.5,INVALID,163.746,VALID,0,VALID,24.13,VALID,259,VALID,1.26016,
2011-05-03, 01:32:04,VALID,1001.83,VALID,0.5,INVALID,163.716,VALID,0,VALID,24.1318,VALID,294,VALID,1.39219,
2011-05-03, 01:33:04,VALID,1001.86,VALID,0.5,INVALID,163.739,VALID,0,VALID,24.0716,VALID,199,VALID,0.850391,
2011-05-03, 01:34:04,VALID,1001.82,VALID,0.5,INVALID,163.731,VALID,0,VALID,24.0716,VALID,190,VALID,1.64414,
2011-05-03, 01:35:04,VALID,1001.78,VALID,0.5,INVALID,163.731,VALID,0,VALID,24.0326,VALID,176,VALID,0.842188,
2011-05-03, 01:36:04,VALID,1001.83,VALID,0.5,INVALID,163.731,VALID,0,VALID,23.9919,VALID,165,VALID,0.251953,
2011-05-03, 01:37:04,VALID,1001.81,VALID,0.5,INVALID,163.723,VALID,0,VALID,24.015,VALID,200,VALID,0.55,
2011-05-03, 01:38:04,VALID,1001.79,VALID,1,INVALID,163.769,VALID,0,VALID,23.9548,VALID,238,VALID,0.900781,
2011-05-03, 01:39:04,VALID,1001.82,VALID,0.5,INVALID,163.746,VALID,0,VALID,23.8964,VALID,190,VALID,1.07187,
2011-05-03, 01:40:04,VALID,1001.79,VALID,0.5,INVALID,163.739,VALID,0,VALID,23.8769,VALID,218,VALID,1.09609,
2011-05-03, 01:41:04,VALID,1001.79,VALID,1,INVALID,163.739,VALID,0,VALID,23.8769,VALID,246,VALID,0.643359,
2011-05-03, 01:42:04,VALID,1001.76,VALID,0.5,INVALID,163.762,VALID,0,VALID,23.8556,VALID,232,VALID,0.476953,
2011-05-03, 01:43:04,VALID,1001.71,VALID,0.5,INVALID,163.739,VALID,0,VALID,23.8575,VALID,226,VALID,0.846875,
2011-05-03, 01:44:04,VALID,1001.71,VALID,0.5,INVALID,163.731,VALID,0,VALID,23.8769,VALID,214,VALID,0.9125,
2011-05-03, 01:45:04,VALID,1001.7,VALID,0.5,INVALID,163.746,VALID,0,VALID,23.838,VALID,214,VALID,1.76992,
2011-05-03, 01:46:04,VALID,1001.67,VALID,0,INVALID,163.754,VALID,0.100563,VALID,23.7973,VALID,192,VALID,1.60117,
2011-05-03, 01:47:04,VALID,1001.62,VALID,0.5,INVALID,163.769,VALID,0.100563,VALID,23.7796,VALID,185,VALID,0.798437,
2011-05-03, 01:48:04,VALID,1001.53,VALID,0,INVALID,163.754,VALID,0.100563,VALID,23.7796,VALID,185,VALID,1.58867,
2011-05-03, 01:49:04,VALID,1001.51,VALID,0.5,INVALID,163.762,VALID,0,VALID,23.7601,VALID,186,VALID,2.8375,
2011-05-03, 01:50:04,VALID,1001.54,VALID,0,INVALID,163.762,VALID,0,VALID,23.7425,VALID,227,VALID,1.23047,
2011-05-03, 01:51:04,VALID,1001.45,VALID,0,INVALID,163.746,VALID,0,VALID,23.7017,VALID,186,VALID,1.74141,
2011-05-03, 01:52:04,VALID,1001.46,VALID,0,INVALID,163.784,VALID,0,VALID,23.7,VALID,226,VALID,0.857813,
2011-05-03, 01:53:04,VALID,1001.49,VALID,0.5,INVALID,163.762,VALID,0,VALID,23.7212,VALID,233,VALID,2.22031,
2011-05-03, 01:54:04,VALID,1001.48,VALID,0,INVALID,163.746,VALID,0,VALID,23.7407,VALID,210,VALID,0.667578,
2011-05-03, 01:55:04,VALID,1001.42,VALID,0,INVALID,163.754,VALID,0,VALID,23.7407,VALID,242,VALID,1.56602,
2011-05-03, 01:56:04,VALID,1001.41,VALID,0,INVALID,163.762,VALID,0,VALID,23.6434,VALID,228,VALID,1.9125,
2011-05-03, 01:57:04,VALID,1001.42,VALID,0,INVALID,163.754,VALID,0.100563,VALID,23.5832,VALID,235,VALID,1.4957,
2011-05-03, 01:58:04,VALID,1001.41,VALID,0,INVALID,163.762,VALID,0.100563,VALID,23.6044,VALID,274,VALID,1.47617,
2011-05-03, 01:59:04,VALID,1001.42,VALID,0,INVALID,163.754,VALID,0.100563,VALID,23.5832,VALID,259,VALID,0.636328,
2011-05-03, 02:00:04,VALID,1001.46,VALID,0.5,INVALID,163.769,VALID,0.100563,VALID,23.6434,VALID,287,VALID,0.628906,
2011-05-03, 02:01:04,VALID,1001.46,VALID,0,INVALID,163.769,VALID,0.100563,VALID,23.6239,VALID,281,VALID,0.6375,
2011-05-03, 02:02:04,VALID,1001.45,VALID,0,INVALID,163.754,VALID,0,VALID,23.6434,VALID,256,VALID,0.984375,
2011-05-03, 02:03:04,VALID,1001.48,VALID,0,INVALID,163.762,VALID,0,VALID,23.6628,VALID,235,VALID,0.350391,
2011-05-03, 02:04:04,VALID,1001.45,VALID,0,INVALID,163.754,VALID,0,VALID,23.6434,VALID,231,VALID,1.2125,
2011-05-03, 02:05:04,VALID,1001.5,VALID,0,INVALID,163.762,VALID,0,VALID,23.6044,VALID,219,VALID,0.373047,
2011-05-03, 02:06:04,VALID,1001.51,VALID,0,INVALID,163.777,VALID,0,VALID,23.5443,VALID,218,VALID,0.366406,
2011-05-03, 02:07:04,VALID,1001.52,VALID,0,INVALID,163.777,VALID,0,VALID,23.585,VALID,218,VALID,0.194141,
2011-05-03, 02:08:04,VALID,1001.54,VALID,0,INVALID,163.754,VALID,0,VALID,23.5868,VALID,218,VALID,0.344141,
2011-05-03, 02:09:04,VALID,1001.56,VALID,0,INVALID,163.777,VALID,0,VALID,23.546,VALID,218,VALID,0,
2011-05-03, 02:10:04,VALID,1001.57,VALID,0,INVALID,163.777,VALID,0,VALID,23.546,VALID,255,VALID,1.20625,
2011-05-03, 02:11:04,VALID,1001.56,VALID,0,INVALID,163.777,VALID,0,VALID,23.546,VALID,177,VALID,1.14023,
2011-05-03, 02:12:04,VALID,1001.58,VALID,0,INVALID,163.777,VALID,0,VALID,23.546,VALID,167,VALID,0.412891,
2011-05-03, 02:13:04,VALID,1001.58,VALID,0,INVALID,163.777,VALID,0,VALID,23.5053,VALID,157,VALID,0.687891,
2011-05-03, 02:14:04,VALID,1001.55,VALID,0,INVALID,163.762,VALID,0.100563,VALID,23.5478,VALID,142,VALID,1.30195,
2011-05-03, 02:15:04,VALID,1001.56,VALID,0,INVALID,163.754,VALID,0.100563,VALID,23.546,VALID,136,VALID,1.06719,
2011-05-03, 02:16:04,VALID,1001.52,VALID,0,INVALID,163.769,VALID,0,VALID,23.5478,VALID,132,VALID,0.912891,
2011-05-03, 02:17:04,VALID,1001.53,VALID,0,INVALID,163.762,VALID,0.100563,VALID,23.5248,VALID,130,VALID,0.744531,
2011-05-03, 02:18:04,VALID,1001.48,VALID,0,INVALID,163.762,VALID,0.100563,VALID,23.5248,VALID,110,VALID,0.995313,
2011-05-03, 02:19:04,VALID,1001.43,VALID,0,INVALID,163.8,VALID,0,VALID,23.4841,VALID,98,VALID,1.07656,
2011-05-03, 02:20:04,VALID,1001.41,VALID,0.5,INVALID,163.762,VALID,0,VALID,23.5266,VALID,98,VALID,0.339063,
2011-05-03, 02:21:04,VALID,1001.31,VALID,0,INVALID,163.777,VALID,0,VALID,23.5266,VALID,99,VALID,0.716797,
2011-05-03, 02:22:04,VALID,1001.26,VALID,0,INVALID,163.784,VALID,0,VALID,23.5248,VALID,102,VALID,0.737109,
2011-05-03, 02:23:04,VALID,1001.23,VALID,0.5,INVALID,163.746,VALID,0,VALID,23.546,VALID,123,VALID,0.980859,
2011-05-03, 02:24:04,VALID,1001.17,VALID,0,INVALID,163.762,VALID,0,VALID,23.546,VALID,152,VALID,0.953516,
2011-05-03, 02:25:04,VALID,1001.13,VALID,0,INVALID,163.777,VALID,0.100563,VALID,23.5266,VALID,152,VALID,0.55,
2011-05-03, 02:26:04,VALID,1001.04,VALID,0,INVALID,163.777,VALID,0,VALID,23.5266,VALID,152,VALID,0.172656,
2011-05-03, 02:27:04,VALID,1001.04,VALID,0.5,INVALID,163.754,VALID,0.100563,VALID,23.5266,VALID,152,VALID,0,
2011-05-03, 02:28:04,VALID,1001.02,VALID,0,INVALID,163.769,VALID,0.100563,VALID,23.5053,VALID,152,VALID,0.0652344,
2011-05-03, 02:29:04,VALID,1000.94,VALID,0,INVALID,163.762,VALID,0,VALID,23.5266,VALID,133,VALID,0.569531,
2011-05-03, 02:30:04,VALID,1000.93,VALID,0.5,INVALID,163.777,VALID,0.100563,VALID,23.5071,VALID,48,VALID,0.678125,
2011-05-03, 02:31:04,VALID,1000.97,VALID,0,INVALID,163.8,VALID,0,VALID,23.4877,VALID,48,VALID,0.341406,
2011-05-03, 02:32:04,VALID,1000.94,VALID,0.5,INVALID,163.762,VALID,0,VALID,23.4682,VALID,48,VALID,0.742969,
2011-05-03, 02:33:04,VALID,1000.92,VALID,1,INVALID,163.777,VALID,0.100563,VALID,23.4877,VALID,46,VALID,0.479688,
2011-05-03, 02:34:04,VALID,1000.89,VALID,0.5,INVALID,163.784,VALID,0,VALID,23.4682,VALID,46,VALID,0.376563,
2011-05-03, 02:35:04,VALID,1000.88,VALID,0.5,INVALID,163.762,VALID,0.100563,VALID,23.4682,VALID,46,VALID,0.268359,
2011-05-03, 02:36:04,VALID,1000.87,VALID,0,INVALID,163.784,VALID,0,VALID,23.4682,VALID,46,VALID,0.344922,
2011-05-03, 02:37:04,VALID,1000.87,VALID,0,INVALID,163.784,VALID,0.100563,VALID,23.4487,VALID,360,VALID,0.575391,
2011-05-03, 02:38:04,VALID,1000.89,VALID,0.5,INVALID,163.769,VALID,0,VALID,23.4487,VALID,360,VALID,0.634766,
2011-05-03, 02:39:04,VALID,1000.87,VALID,0,INVALID,163.784,VALID,0,VALID,23.4487,VALID,360,VALID,0.323828,
2011-05-03, 02:40:04,VALID,1000.86,VALID,0,INVALID,163.777,VALID,0,VALID,23.447,VALID,360,VALID,0.272656,
2011-05-03, 02:41:04,VALID,1000.86,VALID,0,INVALID,163.792,VALID,0.100563,VALID,23.447,VALID,360,VALID,0.276563,
2011-05-03, 02:42:04,VALID,1000.85,VALID,0,INVALID,163.739,VALID,0,VALID,23.4682,VALID,359,VALID,0.650781,
2011-05-03, 02:43:04,VALID,1000.86,VALID,0,INVALID,163.784,VALID,0.100563,VALID,23.4682,VALID,359,VALID,0.532812,
2011-05-03, 02:44:04,VALID,1000.85,VALID,0,INVALID,163.754,VALID,0,VALID,23.4682,VALID,355,VALID,0.430469,
2011-05-03, 02:45:04,VALID,1000.88,VALID,0.5,INVALID,163.769,VALID,0,VALID,23.4293,VALID,342,VALID,0.676953,
2011-05-03, 02:46:04,VALID,1000.88,VALID,0,INVALID,163.792,VALID,0,VALID,23.4098,VALID,292,VALID,0.800781,
2011-05-03, 02:47:04,VALID,1000.88,VALID,0,INVALID,163.777,VALID,0,VALID,23.4098,VALID,287,VALID,0.505078,
2011-05-03, 02:48:04,VALID,1000.9,VALID,0,INVALID,163.777,VALID,0.100563,VALID,23.4487,VALID,288,VALID,0.1125,
2011-05-03, 02:49:04,VALID,1000.85,VALID,0,INVALID,163.762,VALID,0,VALID,23.4487,VALID,289,VALID,0.301562,
2011-05-03, 02:50:04,VALID,1000.87,VALID,0,INVALID,163.777,VALID,0,VALID,23.4682,VALID,328,VALID,0.514844,
2011-05-03, 02:51:04,VALID,1000.88,VALID,0,INVALID,163.784,VALID,0,VALID,23.4487,VALID,355,VALID,0.967578,
2011-05-03, 02:52:04,VALID,1000.89,VALID,0,INVALID,163.754,VALID,0,VALID,23.4293,VALID,360,VALID,0.721484,
2011-05-03, 02:53:04,VALID,1000.88,VALID,0,INVALID,163.746,VALID,0,VALID,23.4487,VALID,320,VALID,0.246094,
2011-05-03, 02:54:04,VALID,1000.84,VALID,0,INVALID,163.777,VALID,0.100563,VALID,23.4275,VALID,341,VALID,0.266797,
2011-05-03, 02:55:04,VALID,1000.83,VALID,0,INVALID,163.792,VALID,0,VALID,23.4293,VALID,338,VALID,0.0457031,
2011-05-03, 02:56:04,VALID,1000.82,VALID,0,INVALID,163.792,VALID,0,VALID,23.447,VALID,338,VALID,0,
2011-05-03, 02:57:04,VALID,1000.85,VALID,0.5,INVALID,163.784,VALID,0,VALID,23.4894,VALID,309,VALID,0.138672,
2011-05-03, 02:58:04,VALID,1000.82,VALID,0,INVALID,163.784,VALID,0,VALID,23.4664,VALID,309,VALID,0,
2011-05-03, 02:59:04,VALID,1000.8,VALID,0,INVALID,163.777,VALID,0,VALID,23.5089,VALID,309,VALID,0.00351562,
2011-05-03, 03:00:04,VALID,1000.82,VALID,0,INVALID,163.792,VALID,0,VALID,23.5071,VALID,309,VALID,0.00351562,
2011-05-03, 03:01:04,VALID,1000.84,VALID,0,INVALID,163.777,VALID,0,VALID,23.4877,VALID,309,VALID,0.160938,
2011-05-03, 03:02:04,VALID,1000.84,VALID,0,INVALID,163.777,VALID,0,VALID,23.5071,VALID,309,VALID,0.0015625,
2011-05-03, 03:03:04,VALID,1000.83,VALID,0,INVALID,163.777,VALID,0,VALID,23.5071,VALID,309,VALID,0.119922,
2011-05-03, 03:04:04,VALID,1000.85,VALID,0,INVALID,163.8,VALID,0,VALID,23.4877,VALID,309,VALID,0.198828,
2011-05-03, 03:05:04,VALID,1000.84,VALID,0,INVALID,163.754,VALID,0,VALID,23.4664,VALID,309,VALID,0,
2011-05-03, 03:06:04,VALID,1000.83,VALID,0,INVALID,163.792,VALID,0,VALID,23.5071,VALID,309,VALID,0.0511719,
2011-05-03, 03:07:04,VALID,1000.86,VALID,0,INVALID,163.777,VALID,0,VALID,23.4877,VALID,309,VALID,0.308594,
2011-05-03, 03:08:04,VALID,1000.85,VALID,0,INVALID,163.792,VALID,0,VALID,23.4664,VALID,309,VALID,0.176953,
2011-05-03, 03:09:04,VALID,1000.87,VALID,0,INVALID,163.8,VALID,0,VALID,23.4877,VALID,309,VALID,0.285547,
2011-05-03, 03:10:04,VALID,1000.85,VALID,0,INVALID,163.784,VALID,0,VALID,23.4877,VALID,310,VALID,0.31875,
2011-05-03, 03:11:04,VALID,1000.86,VALID,0,INVALID,163.784,VALID,0,VALID,23.4063,VALID,314,VALID,0.464844,
2011-05-03, 03:12:04,VALID,1000.87,VALID,0,INVALID,163.807,VALID,0,VALID,23.4487,VALID,314,VALID,0.394141,
2011-05-03, 03:13:04,VALID,1000.85,VALID,0,INVALID,163.792,VALID,0,VALID,23.4487,VALID,319,VALID,0.448438,
2011-05-03, 03:14:04,VALID,1000.87,VALID,0,INVALID,163.807,VALID,0.100563,VALID,23.47,VALID,320,VALID,0.543359,
2011-05-03, 03:15:04,VALID,1000.88,VALID,0,INVALID,163.807,VALID,0.100563,VALID,23.4487,VALID,336,VALID,0.695703,
2011-05-03, 03:16:04,VALID,1000.92,VALID,0,INVALID,163.792,VALID,0,VALID,23.4293,VALID,343,VALID,0.524609,
2011-05-03, 03:17:04,VALID,1000.94,VALID,0,INVALID,163.769,VALID,0,VALID,23.4293,VALID,343,VALID,0.484375,
2011-05-03, 03:18:04,VALID,1000.95,VALID,0,INVALID,163.769,VALID,0,VALID,23.408,VALID,343,VALID,0.344922,
2011-05-03, 03:19:04,VALID,1000.95,VALID,0,INVALID,163.769,VALID,0,VALID,23.4293,VALID,343,VALID,0.347656,
2011-05-03, 03:20:04,VALID,1000.97,VALID,0,INVALID,163.792,VALID,0,VALID,23.4293,VALID,343,VALID,0.178125,
2011-05-03, 03:21:04,VALID,1000.98,VALID,0,INVALID,163.8,VALID,0,VALID,23.4293,VALID,343,VALID,0.214062,
2011-05-03, 03:22:04,VALID,1000.98,VALID,0,INVALID,163.777,VALID,0,VALID,23.4293,VALID,343,VALID,0.372656,
2011-05-03, 03:23:04,VALID,1000.98,VALID,0,INVALID,163.784,VALID,0,VALID,23.4293,VALID,357,VALID,0.765234,
2011-05-03, 03:24:04,VALID,1000.99,VALID,0,INVALID,163.777,VALID,0,VALID,23.4487,VALID,4,VALID,0.720703,
2011-05-03, 03:25:04,VALID,1000.98,VALID,0,INVALID,163.777,VALID,0,VALID,23.4877,VALID,4,VALID,0.703125,
2011-05-03, 03:26:04,VALID,1000.96,VALID,0,INVALID,163.792,VALID,0,VALID,23.4859,VALID,4,VALID,0.485938,
2011-05-03, 03:27:04,VALID,1000.93,VALID,0,INVALID,163.784,VALID,0,VALID,23.546,VALID,4,VALID,0.205859,
2011-05-03, 03:28:04,VALID,1000.92,VALID,0,INVALID,163.784,VALID,0.100563,VALID,23.546,VALID,4,VALID,0.15625,
2011-05-03, 03:29:04,VALID,1000.96,VALID,0,INVALID,163.762,VALID,0.100563,VALID,23.546,VALID,4,VALID,0,
2011-05-03, 03:30:04,VALID,1000.95,VALID,0,INVALID,163.784,VALID,0,VALID,23.5248,VALID,4,VALID,0.259375,
2011-05-03, 03:31:04,VALID,1000.95,VALID,0,INVALID,163.762,VALID,0.100563,VALID,23.546,VALID,4,VALID,0.137891,
2011-05-03, 03:32:04,VALID,1000.95,VALID,0,INVALID,163.777,VALID,0,VALID,23.5248,VALID,4,VALID,0.0347656,
2011-05-03, 03:33:04,VALID,1000.93,VALID,0,INVALID,163.784,VALID,0,VALID,23.585,VALID,4,VALID,0,
2011-05-03, 03:34:04,VALID,1000.88,VALID,0,INVALID,163.777,VALID,0,VALID,23.6239,VALID,4,VALID,0,
2011-05-03, 03:35:04,VALID,1000.89,VALID,0,INVALID,163.777,VALID,0,VALID,23.6416,VALID,4,VALID,0,
2011-05-03, 03:36:04,VALID,1000.86,VALID,0,INVALID,163.784,VALID,0,VALID,23.6823,VALID,4,VALID,0,
2011-05-03, 03:37:04,VALID,1000.86,VALID,0,INVALID,163.792,VALID,0,VALID,23.7017,VALID,4,VALID,0.164844,
2011-05-03, 03:38:04,VALID,1000.85,VALID,0,INVALID,163.777,VALID,0,VALID,23.7017,VALID,4,VALID,0.107813,